Luverne, MN

10:29 PM CST on February 25, 2018 (GMT -0600)
Luverne

Weather History for KLYV - July, 2013

Change the Weather History Date:

Thursday, July 18, 2013

  Actual Average (KPQN) Record (KPQN)
Temperature  
Mean Temperature 80 °F -  
Max Temperature 91 °F 80 °F 93 °F (2011)
Min Temperature 69 °F 60 °F 51 °F (2000)
Cooling Degree Days 15    
Growing Degree Days 30 (Base 50)    
Moisture  
Dew Point 67 °F    
Average Humidity 65    
Maximum Humidity 94    
Minimum Humidity 41    
Precipitation  
Precipitation 0.00 in - - ()
Sea Level Pressure  
Sea Level Pressure 30.01 in    
Wind  
Wind Speed 8 mph (SSW)    
Max Wind Speed 20 mph    
Max Gust Speed 26 mph    
Visibility 9 miles    
Events      
Averages and records for this station are not official NWS values.
T = Trace of Precipitation, MM = Missing Value Source: NWS Daily Summary

Daily Weather History Graph

Daily Weather History Graph

Search for Another Location

Airport or City:

Trip Planner

Search our weather history database for the weather conditions in past years. The results will help you decide how hot, cold, wet, or windy it might be!

Date:

Astronomy

Jul. 18, 2013 Rise Set
Actual Time 6:00 AM CDT 9:01 PM CDT
Civil Twilight 5:25 AM CDT 9:35 PM CDT
Nautical Twilight 4:42 AM CDT 10:19 PM CDT
Astronomical Twilight 3:49 AM CDT 11:11 PM CDT
Moon 4:58 PM CDT (7/18) 1:53 AM CDT (7/18)
Length of Visible Light 16h 09m
Length of Day
15h 01m
Waxing Gibbous, 77% of the Moon is Illuminated
Jul 18
Waxing Gibbous
Jul 22
Full
Jul 29
Last Quarter
Aug 6
New
Aug 14
First Quarter

Hourly Weather History & Observations

Time (CDT) Temp. Heat Index Dew Point Humidity Pressure Visibility Wind Dir Wind Speed Gust Speed Precip Events Conditions
12:14 AM 71.6 °F - 66.2 °F 83% 30.15 in 10.0 mi South 3.5 mph - N/A   Clear
12:33 AM 71.6 °F - 66.2 °F 83% 30.15 in 10.0 mi South 4.6 mph - N/A   Clear
12:53 AM 69.8 °F - 66.2 °F 88% 30.16 in 10.0 mi Calm Calm - N/A   Clear
1:14 AM 69.8 °F - 66.2 °F 88% 30.15 in 10.0 mi South 3.5 mph - N/A   Clear
1:33 AM 71.6 °F - 66.2 °F 83% 30.15 in 10.0 mi South 4.6 mph - N/A   Clear
1:53 AM 69.8 °F - 66.2 °F 88% 30.14 in 7.0 mi South 3.5 mph - N/A   Clear
2:14 AM 69.8 °F - 66.2 °F 88% 30.14 in 7.0 mi South 4.6 mph - N/A   Clear
2:33 AM 69.8 °F - 66.2 °F 88% 30.14 in 7.0 mi Calm Calm - N/A   Clear
2:53 AM 69.8 °F - 66.2 °F 88% 30.14 in 7.0 mi South 4.6 mph - N/A   Clear
3:14 AM 69.8 °F - 66.2 °F 88% 30.13 in 7.0 mi South 3.5 mph - N/A   Clear
3:33 AM 69.8 °F - 66.2 °F 88% 30.12 in 7.0 mi South 3.5 mph - N/A   Clear
3:53 AM 69.8 °F - 68.0 °F 94% 30.12 in 7.0 mi South 4.6 mph - N/A   Scattered Clouds
4:14 AM 71.6 °F - 68.0 °F 88% 30.11 in 7.0 mi South 4.6 mph - N/A   Scattered Clouds
4:33 AM 71.6 °F - 68.0 °F 88% 30.11 in 7.0 mi South 3.5 mph - N/A   Scattered Clouds
4:53 AM 71.6 °F - 68.0 °F 88% 30.10 in 7.0 mi South 4.6 mph - N/A   Scattered Clouds
5:13 AM 71.6 °F - 68.0 °F 88% 30.10 in 7.0 mi South 3.5 mph - N/A   Clear
5:33 AM 69.8 °F - 66.2 °F 88% 30.10 in 7.0 mi Calm Calm - N/A   Clear
5:53 AM 69.8 °F - 66.2 °F 88% 30.10 in 7.0 mi South 3.5 mph - N/A   Clear
6:13 AM 69.8 °F - 66.2 °F 88% 30.10 in 7.0 mi Calm Calm - N/A   Clear
6:33 AM 69.8 °F - 66.2 °F 88% 30.09 in 7.0 mi South 5.8 mph - N/A   Clear
6:53 AM 71.6 °F - 68.0 °F 88% 30.09 in 7.0 mi South 4.6 mph - N/A   Clear
7:13 AM 71.6 °F - 68.0 °F 88% 30.09 in 7.0 mi South 4.6 mph - N/A   Clear
7:33 AM 73.4 °F - 68.0 °F 83% 30.09 in 7.0 mi South 6.9 mph - N/A   Clear
7:53 AM 75.2 °F - 68.0 °F 78% 30.08 in 10.0 mi South 9.2 mph - N/A   Clear
8:13 AM 77.0 °F - 68.0 °F 74% 30.08 in 10.0 mi South 9.2 mph - N/A   Clear
8:33 AM 78.8 °F - 68.0 °F 69% 30.07 in 10.0 mi SSW 9.2 mph - N/A   Clear
8:53 AM 78.8 °F - 68.0 °F 69% 30.07 in 10.0 mi SW 11.5 mph - N/A   Clear
9:13 AM 80.6 °F 83.2 °F 68.0 °F 65% 30.07 in 10.0 mi SW 10.4 mph - N/A   Clear
9:33 AM 82.4 °F 85.4 °F 68.0 °F 62% 30.06 in 10.0 mi SW 10.4 mph - N/A   Clear
9:54 AM 82.4 °F 85.4 °F 68.0 °F 62% 30.05 in 10.0 mi SW 13.8 mph - N/A   Clear
10:13 AM 84.2 °F 87.3 °F 68.0 °F 58% 30.05 in 10.0 mi SSW 12.7 mph 18.4 mph N/A   Clear
10:33 AM 86.0 °F 88.2 °F 66.2 °F 51% 30.04 in 10.0 mi SW 12.7 mph 18.4 mph N/A   Clear
10:54 AM 86.0 °F 89.4 °F 68.0 °F 55% 30.04 in 10.0 mi SSW 15.0 mph 21.9 mph N/A   Clear
11:13 AM 86.0 °F 88.2 °F 66.2 °F 51% 30.03 in 10.0 mi SSW 12.7 mph - N/A   Clear
11:33 AM 86.0 °F 89.4 °F 68.0 °F 55% 30.03 in 10.0 mi SW 15.0 mph 21.9 mph N/A   Clear
11:54 AM 87.8 °F 91.4 °F 68.0 °F 52% 30.02 in 10.0 mi SW 13.8 mph 20.7 mph N/A   Clear
12:13 PM 87.8 °F 91.4 °F 68.0 °F 52% 30.02 in 10.0 mi SW 15.0 mph 21.9 mph N/A   Clear
12:33 PM 87.8 °F 91.4 °F 68.0 °F 52% 30.01 in 10.0 mi SW 17.3 mph 25.3 mph N/A   Clear
12:54 PM 87.8 °F 91.4 °F 68.0 °F 52% 30.00 in 10.0 mi SSW 15.0 mph 21.9 mph N/A   Clear
1:13 PM 87.8 °F 90.4 °F 66.2 °F 49% 29.99 in 10.0 mi SSW 15.0 mph 24.2 mph N/A   Clear
1:33 PM 89.6 °F 92.2 °F 66.2 °F 46% 29.99 in 10.0 mi SW 17.3 mph 23.0 mph N/A   Clear
1:54 PM 89.6 °F 91.1 °F 64.4 °F 43% 29.98 in 10.0 mi SW 18.4 mph 26.5 mph N/A   Clear
2:13 PM 89.6 °F 92.2 °F 66.2 °F 46% 29.97 in 10.0 mi SSW 18.4 mph 24.2 mph N/A   Clear
2:33 PM 89.6 °F 92.2 °F 66.2 °F 46% 29.97 in 10.0 mi SW 18.4 mph 23.0 mph N/A   Clear
2:54 PM 89.6 °F 92.2 °F 66.2 °F 46% 29.97 in 10.0 mi SW 19.6 mph 24.2 mph N/A   Clear
3:13 PM 91.4 °F 93.2 °F 64.4 °F 41% 29.96 in 10.0 mi SW 15.0 mph 24.2 mph N/A   Clear
3:33 PM 91.4 °F 94.0 °F 66.2 °F 43% 29.95 in 10.0 mi SW 17.3 mph 24.2 mph N/A   Clear
3:54 PM 91.4 °F 95.4 °F 68.0 °F 46% 29.95 in 10.0 mi SSW 12.7 mph 21.9 mph N/A   Clear
4:13 PM 91.4 °F 93.2 °F 64.4 °F 41% 29.93 in 10.0 mi SW 19.6 mph 25.3 mph N/A   Clear
4:33 PM 91.4 °F 93.2 °F 64.4 °F 41% 29.93 in 10.0 mi SW 16.1 mph 24.2 mph N/A   Clear
4:54 PM 91.4 °F 94.0 °F 66.2 °F 43% 29.92 in 10.0 mi SW 15.0 mph 24.2 mph N/A   Clear
5:13 PM 91.4 °F 95.4 °F 68.0 °F 46% 29.92 in 10.0 mi SW 17.3 mph 23.0 mph N/A   Clear
5:33 PM 89.6 °F 92.2 °F 66.2 °F 46% 29.91 in 10.0 mi SW 17.3 mph 23.0 mph N/A   Clear
5:53 PM 89.6 °F 92.2 °F 66.2 °F 46% 29.91 in 10.0 mi SW 16.1 mph 24.2 mph N/A   Clear
6:13 PM 89.6 °F 93.4 °F 68.0 °F 49% 29.90 in 10.0 mi SW 17.3 mph - N/A   Clear
6:34 PM 89.6 °F 93.4 °F 68.0 °F 49% 29.89 in 10.0 mi SW 17.3 mph 25.3 mph N/A   Clear
6:53 PM 89.6 °F 93.4 °F 68.0 °F 49% 29.88 in 10.0 mi SW 12.7 mph 19.6 mph N/A   Clear
7:13 PM 87.8 °F 90.4 °F 66.2 °F 49% 29.88 in 10.0 mi SW 15.0 mph 23.0 mph N/A   Clear
7:34 PM 87.8 °F 91.4 °F 68.0 °F 52% 29.88 in 10.0 mi SSW 12.7 mph - N/A   Clear
7:53 PM 86.0 °F 89.4 °F 68.0 °F 55% 29.88 in 10.0 mi SSW 12.7 mph - N/A   Clear
8:13 PM 86.0 °F 89.4 °F 68.0 °F 55% 29.87 in 10.0 mi SSW 10.4 mph - N/A   Clear
8:33 PM 84.2 °F 87.3 °F 68.0 °F 58% 29.87 in 10.0 mi SSW 9.2 mph - N/A   Clear
8:53 PM 82.4 °F 85.4 °F 68.0 °F 62% 29.87 in 10.0 mi SSW 8.1 mph - N/A   Clear
9:14 PM 80.6 °F 83.2 °F 68.0 °F 65% 29.87 in 10.0 mi SSW 8.1 mph - N/A   Clear
9:33 PM 80.6 °F 83.2 °F 68.0 °F 65% 29.87 in 10.0 mi SSW 8.1 mph - N/A   Clear
9:53 PM 80.6 °F 83.2 °F 68.0 °F 65% 29.87 in 10.0 mi SSW 6.9 mph - N/A   Clear
10:14 PM 78.8 °F - 68.0 °F 69% 29.87 in 10.0 mi SSW 6.9 mph - N/A   Clear
10:33 PM 78.8 °F - 68.0 °F 69% 29.87 in 10.0 mi SSW 6.9 mph - N/A   Clear
10:53 PM 78.8 °F - 68.0 °F 69% 29.87 in 10.0 mi SSW 8.1 mph - N/A   Clear
11:14 PM 80.6 °F 83.2 °F 68.0 °F 65% 29.87 in 10.0 mi SSW 11.5 mph - N/A   Clear
11:33 PM 80.6 °F 83.2 °F 68.0 °F 65% 29.87 in 10.0 mi SW 11.5 mph - N/A   Clear
11:53 PM 78.8 °F - 68.0 °F 69% 29.87 in 10.0 mi SSW 11.5 mph - N/A   Clear